Regional Weather Roundup
Issued by NWS Sioux Falls, SD

Home | Current Version | Previous Version | Graphics & Text | Print | Product List | Glossary Off
Versions: 1 2 3 4 5 6 7 8 9 10 11 12 13 14 15 16 17 18 19 20 21 22 23 24 25 26 27 28 29 30 31 32 33 34 35 36 37 38 39 40 41 42 43 44 45 46 47 48 49 50

000
ASUS43 KFSD 200410
RWRFSD

WEATHER ROUNDUP FOR SE SOUTH DAKOTA/SW MINNESOTA/NW IOWA
NATIONAL WEATHER SERVICE SIOUX FALLS SD
1000 PM CST SUN FEB 19 2017

NOTE: "FAIR" INDICATES FEW OR NO CLOUDS BELOW 12,000 FEET WITH NO
SIGNIFICANT WEATHER AND OR OBSTRUCTIONS TO VISIBILITY.


SDZ038>040-050-052>070-200500-
SOUTHEAST SOUTH DAKOTA

CITY           SKY/WX    TMP DP  RH WIND       PRES   REMARKS
BROOKINGS      CLOUDY    53  47  79 SE17      29.70R
CHAMBERLAIN    CLOUDY    56  46  70 SE9       29.59R
HURON          CLOUDY    55  49  80 SE14      29.62S
MADISON        FAIR      54  54 100 S14G20    29.70R
MITCHELL       MOCLDY    57  49  74 S17       29.65R
SIOUX FALLS    CLOUDY    57  50  77 S14       29.72R
WINNER         CLOUDY    61  45  55 S13       29.59S
YANKTON        MOCLDY    57  48  72 S21G28    29.70R
$$

MNZ071-072-080-081-089-090-097-098-200500-
SOUTHWEST MINNESOTA

CITY           SKY/WX    TMP DP  RH WIND       PRES   REMARKS
FAIRMONT       MOCLDY    51  46  83 SE13      29.83S
JACKSON        CLOUDY    50  45  81 SE13      29.81S
LUVERNE        MOCLDY    52  45  76 S12       29.75R
MARSHALL       CLOUDY    54  48  80 S14       29.73R
MONTEVIDEO     CLOUDY    54  48  82 S14       29.74R
PIPESTONE      MOCLDY    54  45  71 S14       29.73S
REDWOOD FALLS  CLOUDY    53  47  79 SE16      29.77R
TRACY          CLOUDY    55  49  79 S17G24    29.74S
WINDOM         PTCLDY    54  46  76 SE14G21   29.79S
WORTHINGTON    CLOUDY    52  47  83 S17       29.77S
$$

IAZ001>003-012>014-020>022-031-032-NEZ013-014-SDZ071-200500-
NORTHWEST IOWA

CITY           SKY/WX    TMP DP  RH WIND       PRES   REMARKS
CHEROKEE       CLOUDY    53  49  87 S9        29.80R
DENISON        CLOUDY    57  50  77 S14G24    29.82R
ESTHERVILLE    CLOUDY    50  47  89 SE14      29.82R
LE MARS        CLOUDY    57  52  82 S17       29.77R
SHELDON        CLOUDY    54  54 100 S20       29.76R
SIOUX CITY     CLOUDY    61  53  75 S21G28    29.79R
SPENCER        CLOUDY    55  48  77 SE17      29.79F
STORM LAKE     PTCLDY    50  46  87 SE13      29.81S
$$

ABBREVIATIONS USED IN REMARKS
   TC - TEMPERATURE IN CELSIUS
  WCI - WIND CHILL INDEX
   HX - HEAT INDEX
  VSB - VISIBILITY





USA.gov is the U.S. government's official web portal to all federal, state and local government web resources and services.